Location: Brantley
(31.5822°N, 86.2569°W)
Time: 01:43:31
(UTC+00:00)

Transit 2A Rocket - Pass Details

Date: 23 February 2026
Orbit: 583 x 900 km, 66.7° (Epoch: 12 March)

Event Time Altitude Azimuth Distance (km) Brightness Sun altitude
Rises 18:10:18 0° 149° (SSE) 3,437 8.9 48.7°
Reaches altitude 10° 18:15:24 10° 111° (ESE) 2,552 8.0 48.6°
Maximum altitude 18:16:22 10° 101° (ESE) 2,530 7.9 48.6°
Drops below altitude 10° 18:17:21 10° 92° (E) 2,564 7.8 48.5°
Sets 18:22:32 0° 54° (NE) 3,515 8.1 48.4°
